Regional Weather Roundup
Issued by NWS Green Bay, WI

Home | Current Version | Previous Version | Graphics & Text | Print | Product List | Glossary Off
Versions: 1 2 3 4 5 6 7 8 9 10 11 12 13 14 15 16 17 18 19 20 21 22 23 24 25 26 27 28 29 30 31 32 33 34 35 36 37 38 39 40 41 42 43 44 45 46 47 48 49 50

000
ASUS43 KGRB 030600
RWRGRB

NORTH-CENTRAL AND NORTHEAST WISCONSIN REGIONAL WEATHER ROUNDUP
NATIONAL WEATHER SERVICE GREEN BAY WI
100 AM CDT THU SEP 03 2015

WIZ005-009-010>012-018-019-030700-
NORTH CENTRAL WISCONSIN

CITY           SKY/WX    TMP DP  RH WIND       PRES   REMARKS
IRONWOOD       CLOUDY    59  59 100 CALM      29.95S VSB 1/4
MANITOWISH WTR NOT AVBL
ARBOR VITAE    NOT AVBL
EAGLE RIVER    NOT AVBL
LAND O LAKES   NOT AVBL
RHINELANDER    CLOUDY    65  63  93 E5        29.98S
PHILLIPS       CLOUDY    63  63 100 CALM      29.97F
ANTIGO         NOT AVBL
TOMAHAWK       NOT AVBL
MERRILL        NOT AVBL
$$

WIZ013-073-030700-
NORTHEAST WISCONSIN

CITY           SKY/WX    TMP DP  RH WIND       PRES   REMARKS
IRON MOUNTAIN  LGT RAIN  65  63  93 NE5       29.95S
MARINETTE      CLOUDY    66  63  88 E6        29.92F
$$

WIZ017-030-035>037-045-030700-
CENTRAL WISCONSIN

CITY           SKY/WX    TMP DP  RH WIND       PRES   REMARKS
MEDFORD        NOT AVBL
WAUSAU         LGT RAIN  68  67  96 CALM      29.93S
MOSINEE        NOT AVBL
MARSHFIELD     LGT RAIN  71  66  84 CALM      29.93F
WISC RAPIDS    CLOUDY    73  69  87 SW3       29.92F
STEVENS POINT  NOT AVBL
WAUPACA        NOT AVBL
SHAWANO        NOT AVBL
CLINTONVILLE   CLOUDY    68  66  94 N5        29.92R
WAUTOMA        NOT AVBL
$$

WIZ038-039-048-051-030700-
FOX VALLEY

CITY           SKY/WX    TMP DP  RH WIND       PRES   REMARKS
NWS GREEN BAY  FAIR      70  68  93 CALM      29.90S FOG
APPLETON       NOT AVBL
OSHKOSH        FAIR      72  68  87 S8        29.90F
FOND DU LAC    FAIR      74  68  81 SW7       29.91F
$$

WIZ022-050-052-030700-
EAST CENTRAL WISCONSIN

CITY           SKY/WX    TMP DP  RH WIND       PRES   REMARKS
EPHRAIM        LGT RAIN  68  67  97 SE6       29.93F
STURGEON BAY   CLOUDY    66  63  88 CALM      29.95S
MANITOWOC      NOT AVBL
SHEBOYGAN      CLOUDY    74  69  85 S8        29.92F
$$

LMZ563-521-522-541>543-030700-
LAKESHORE

STATION/POSITION TIME  TEMP    WIND        PRES    VSBY  WAVE
                       AIR SEA DIR/SP/G                  HT/PER
                 (UTC) (F)     (DEG/KT/KT) (MB)    (MI)  (FT/S)
SHEBOYGAN LKSHOR 0500   69     200/  9/ 10 1013.3F
KEWAUNEE LKSHORE 0500   58     190/  1/  3 1012.2F
ALGOMA MARINA    0514          220/  6/  8   N/A
NORTHPORT PIER   0500   69     300/  3/ 20 1014.6R
N MID LAKE BUOY  0450   67 66  130/  4/  6 1013.3F         1
S GREEN BAY BUOY 0500   67 66  310/  6/  6 1014.5F
CHAMBERS ISLAND  0500   65      80/  2/  3 1013.9F
MENOMINEE LKSHOR 0500   64      30/ 10/ 11 1012.4F
$$


USA.gov is the U.S. government's official web portal to all federal, state and local government web resources and services.